Terminal Aerodrome Forecast
Issued by NWS

Home | Current Version | Previous Version | Text Only | Print | Product List | Glossary On
Versions: 1 2 3 4 5 6 7 8 9 10 11 12 13 14 15 16 17 18 19 20 21 22 23 24 25 26 27 28 29 30 31 32 33 34 35 36 37 38 39 40 41 42
000
FTUS43 KGLD 181410 AAA
TAFMCK
TAF AMD
KMCK 181410Z 1814/1912 09008KT 2SM BR OVC004
      TEMPO 1814/1816 1/4SM FG VV002
     FM181800 12010G16KT P6SM SCT050
     FM190400 21010KT P6SM SKC=

USA.gov is the U.S. government's official web portal to all federal, state and local government web resources and services.